Location: Unspecified
(0.0000°N, 0.0000°E)
Time: 17:57:52
(UTC+00:00)

Vanguard 2 - Visible Passes

Search period start: 18 January 2020 00:00
Search period end: 28 January 2020 00:00
Orbit: 553 x 2938 km, 32.9° (Epoch: 18 January)

Date Brightness Start Highest point End Pass type
(mag) Time Alt. Az. Time Alt. Az. Time Alt. Az.
18 Jan 11.3 00:36:16 18° SSE 00:36:16 18° SSE 00:40:38 10° SSE visible
18 Jan 11.5 02:39:22 10° SSW 02:46:10 15° S 02:54:00 10° SSE visible
18 Jan 11.8 04:53:27 10° SSW 05:04:18 19° SSE 05:15:14 10° SE visible
19 Jan 11.3 00:52:42 17° S 00:52:42 17° S 00:58:05 10° SSE visible
19 Jan 11.6 02:59:24 10° SSW 03:06:01 14° S 03:13:27 10° SSE visible
19 Jan 11.8 05:11:29 10° SSW 05:23:53 23° SSE 05:36:03 10° ESE visible
20 Jan 11.3 01:09:10 14° S 01:09:10 14° S 01:15:34 10° SSE visible
20 Jan 11.7 03:18:36 10° SSW 03:25:54 14° S 03:34:00 10° SE visible
20 Jan 11.8 05:29:17 10° SSW 05:43:12 28° SSE 05:56:27 10° ESE visible
20 Jan 9.1 18:54:58 10° NNE 18:56:01 11° NE 18:56:16 11° NE visible
21 Jan 11.4 01:25:40 11° SSW 01:28:32 12° S 01:33:12 10° SSE visible
21 Jan 11.8 03:37:02 10° SSW 03:45:43 16° SSE 03:55:15 10° SE visible
21 Jan 11.8 05:46:57 10° SSW 06:02:14 35° SSE 06:16:20 10° E visible
21 Jan 8.4 19:10:42 10° NNW 19:13:51 21° NE 19:14:05 20° NE visible
22 Jan 11.5 01:45:04 10° S 01:48:11 11° S 01:51:33 10° SSE visible
22 Jan 11.7 03:54:56 10° SSW 04:05:18 20° SSE 04:16:36 10° ESE visible
22 Jan 7.6 19:27:46 10° NNW 19:31:37 39° NE 19:32:01 38° NE visible
23 Jan 11.7 02:04:23 10° S 02:07:54 11° S 02:11:44 10° SSE visible
23 Jan 11.7 04:12:36 10° SSW 04:24:37 24° SSE 04:37:35 10° ESE visible
23 Jan 7.0 19:45:21 10° NW 19:49:25 78° NE 19:50:04 64° E visible
24 Jan 11.7 02:22:20 10° S 02:27:35 13° SSE 02:33:28 10° SE visible
24 Jan 11.7 04:30:09 10° SSW 04:43:38 30° SSE 04:58:02 10° E visible
24 Jan 7.8 20:03:18 10° WNW 20:07:22 54° SSW 20:08:14 47° S visible
25 Jan 11.7 02:39:48 10° S 02:47:05 15° SSE 02:55:30 10° SE visible
25 Jan 11.5 04:47:41 10° SSW 05:02:24 38° SSE 05:17:54 10° E visible
25 Jan 8.9 20:21:42 10° W 20:25:29 30° SSW 20:26:29 27° S visible
26 Jan 11.6 02:57:08 10° SSW 03:06:22 19° SSE 03:17:13 10° ESE visible
26 Jan 11.2 05:05:16 10° SW 05:20:57 48° SE 05:37:16 10° ENE visible
26 Jan 7.1 18:31:14 10° NW 18:35:05 51° NE 18:39:19 10° ESE visible
26 Jan 9.8 20:40:43 10° WSW 20:43:47 17° SSW 20:44:47 17° S visible
27 Jan 11.6 03:14:26 10° SSW 03:25:21 25° SSE 03:38:20 10° ESE visible
27 Jan 11.0 05:22:56 10° SW 05:39:21 60° SE 05:56:09 10° ENE visible
27 Jan 7.1 18:49:02 10° WNW 18:52:57 74° SW 18:57:24 10° SE visible
27 Jan 10.3 21:01:26 10° SSW 21:02:15 10° SSW 21:03:02 10° S visible
